Weather History for Memphis, TN

Change the Weather History Date:

Saturday, January 28, 2012

  Actual Average Record
Temperature  
Mean Temperature 41 °F 42 °F  
Max Temperature 52 °F 51 °F 77 °F (1975)
Min Temperature 29 °F 33 °F -1 °F (1940)
Degree Days  
Heating Degree Days 24 23  
Month to date heating degree days 489 669  
Since 1 July heating degree days 1490 1833  
Cooling Degree Days 0 0  
Month to date cooling degree days 0 0  
Year to date cooling degree days 0 0  
Moisture  
Dew Point 28 °F    
Average Humidity 50    
Maximum Humidity 71    
Minimum Humidity 29    
Precipitation  
Precipitation 0.00 in 0.13 in 3.15 in (1874)
Month to date precipitation 1.73 3.58  
Year to date precipitation 1.73 3.58  
Snow  
Snow 0.00 in 0.10 in 5.50 in (1895)
Month to date snowfall T 1.7  
Since 1 July snowfall 1.4 1.9  
Snow Depth 0.00 in    
Sea Level Pressure  
Sea Level Pressure 30.29 in    
Wind  
Wind Speed 9 mph (NW)    
Max Wind Speed 22 mph    
Max Gust Speed 32 mph    
Visibility 10 miles    
Events      
T = Trace of Precipitation, MM = Missing Value Source: NWS Daily Summary

Daily Weather History Graph

Daily Weather History Graph

Search for Another Location

Airport:

Trip Planner

Search our weather history database for the weather conditions in past years. The results will help you decide how hot, cold, wet, or windy it might be!

Date:

Astronomy

Jan. 28, 2012 Rise Set
Actual Time 7:01 AM CST 5:24 PM CST
Civil Twilight 6:35 AM CST 5:50 PM CST
Nautical Twilight 6:04 AM CST 6:21 PM CST
Astronomical Twilight 5:34 AM CST 6:51 PM CST
Moon 9:39 AM CST (1/28) 10:55 PM CST (1/28)
Length of Visible Light 11h 15m
Length of Day
10h 22m
Waxing Crescent, 28% of the Moon is Illuminated
Jan 28
Waxing Crescent
Jan 30
First Quarter
Feb 7
Full
Feb 14
Last Quarter
Feb 21
New

Hourly Weather History & Observations

Time (CST) Temp. Windchill Dew Point Humidity Pressure Visibility Wind Dir Wind Speed Gust Speed Precip Events Conditions
12:54 AM 50.0 °F - 37.0 °F 61% 30.01 in 10.0 mi SSW 13.8 mph 21.9 mph N/A   Overcast
1:54 AM 50.0 °F - 36.0 °F 59% 30.02 in 10.0 mi SSW 10.4 mph - N/A   Mostly Cloudy
2:54 AM 50.0 °F - 37.0 °F 61% 30.03 in 10.0 mi SW 5.8 mph - N/A   Overcast
3:54 AM 50.0 °F - 37.9 °F 63% 30.08 in 10.0 mi West 11.5 mph - N/A   Mostly Cloudy
4:54 AM 48.0 °F - 39.0 °F 71% 30.13 in 10.0 mi NNW 13.8 mph 26.5 mph N/A   Scattered Clouds
4:59 AM 48.2 °F - 39.2 °F 71% 30.13 in 10.0 mi NW 18.4 mph 26.5 mph N/A   Mostly Cloudy
5:35 AM 46.4 °F 39.5 °F 37.4 °F 71% 30.16 in 10.0 mi NNW 17.3 mph 25.3 mph N/A   Scattered Clouds
5:54 AM 44.1 °F 35.7 °F 35.1 °F 71% 30.18 in 10.0 mi NNW 20.7 mph 32.2 mph N/A   Partly Cloudy
6:54 AM 43.0 °F 36.0 °F 33.1 °F 68% 30.23 in 10.0 mi NNW 13.8 mph 24.2 mph N/A   Scattered Clouds
7:54 AM 43.0 °F 36.4 °F 33.1 °F 68% 30.28 in 10.0 mi North 12.7 mph - N/A   Mostly Cloudy
8:54 AM 44.1 °F 36.8 °F 28.9 °F 55% 30.32 in 10.0 mi North 16.1 mph 23.0 mph N/A   Mostly Cloudy
9:54 AM 44.6 °F 37.8 °F 23.0 °F 43% 30.35 in 10.0 mi North 15.0 mph 21.9 mph N/A   Mostly Cloudy
10:54 AM 45.0 °F 39.3 °F 23.0 °F 42% 30.38 in 10.0 mi North 11.5 mph 20.7 mph N/A   Mostly Cloudy
11:54 AM 46.9 °F - 19.9 °F 34% 30.38 in 10.0 mi NNW 10.4 mph - N/A   Mostly Cloudy
12:54 PM 46.9 °F - 23.0 °F 39% 30.38 in 10.0 mi NW 9.2 mph - N/A   Mostly Cloudy
1:54 PM 48.9 °F - 23.0 °F 36% 30.38 in 10.0 mi NW 11.5 mph - N/A   Scattered Clouds
2:54 PM 50.0 °F - 19.9 °F 31% 30.38 in 10.0 mi North 8.1 mph - N/A   Mostly Cloudy
3:54 PM 46.9 °F - 18.0 °F 32% 30.39 in 10.0 mi North 8.1 mph - N/A   Mostly Cloudy
4:54 PM 46.0 °F 41.9 °F 19.9 °F 35% 30.39 in 10.0 mi NW 8.1 mph - N/A   Mostly Cloudy
5:54 PM 43.0 °F 40.3 °F 19.9 °F 40% 30.40 in 10.0 mi NNW 4.6 mph - N/A   Mostly Cloudy
6:54 PM 41.0 °F - 21.0 °F 45% 30.40 in 10.0 mi Calm Calm - N/A   Mostly Cloudy
7:54 PM 39.0 °F 36.8 °F 21.9 °F 50% 30.42 in 10.0 mi West 3.5 mph - N/A   Scattered Clouds
8:54 PM 37.0 °F - 23.0 °F 57% 30.41 in 10.0 mi Calm Calm - N/A   Partly Cloudy
9:54 PM 33.1 °F - 21.9 °F 64% 30.40 in 10.0 mi Calm Calm - N/A   Partly Cloudy
10:54 PM 33.1 °F 30.0 °F 24.1 °F 70% 30.41 in 10.0 mi South 3.5 mph - N/A   Clear
11:54 PM 30.9 °F - 23.0 °F 72% 30.41 in 10.0 mi Calm Calm - N/A   Clear